This is the latest recevied weather packets stored in our database for station/object OE3XOC-11. If no packets are shown the sender has not sent any weather packets the latest 10 day(s).
| Time | Temp. | Humidity | Pressure | Rain* | Wind** | Luminosity | Snow |
|---|---|---|---|---|---|---|---|
| 1777003934 | 10° C | 42% | 963.3 hPa | - | - | - | - |
| 1777003633 | 10.56° C | 42% | 963.3 hPa | - | - | - | - |
| 1777003333 | 11.11° C | 42% | 963.4 hPa | - | - | - | - |
| 1777003034 | 10.56° C | 43% | 963.4 hPa | - | - | - | - |
| 1777002733 | 10° C | 42% | 963.4 hPa | - | - | - | - |
| 1777002433 | 10.56° C | 42% | 963.5 hPa | - | - | - | - |
| 1777002133 | 10.56° C | 41% | 963.4 hPa | - | - | - | - |
| 1777001833 | 10° C | 42% | 963.5 hPa | - | - | - | - |
| 1777001533 | 10° C | 42% | 963.5 hPa | - | - | - | - |
| 1777001233 | 10.56° C | 41% | 963.5 hPa | - | - | - | - |
| 1777000933 | 11.11° C | 41% | 963.3 hPa | - | - | - | - |
| 1777000633 | 11.11° C | 40% | 963.6 hPa | - | - | - | - |
| 1777000333 | 11.11° C | 41% | 963.6 hPa | - | - | - | - |
| 1777000033 | 11.11° C | 40% | 963.7 hPa | - | - | - | - |
| 1776999733 | 11.11° C | 40% | 963.6 hPa | - | - | - | - |
| 1776999433 | 11.67° C | 39% | 963.7 hPa | - | - | - | - |
| 1776999133 | 11.67° C | 38% | 963.8 hPa | - | - | - | - |
| 1776998833 | 11.11° C | 39% | 963.8 hPa | - | - | - | - |
| 1776998533 | 11.67° C | 38% | 963.8 hPa | - | - | - | - |
| 1776998233 | 11.67° C | 38% | 963.8 hPa | - | - | - | - |
| 1776997933 | 12.22° C | 36% | 963.8 hPa | - | - | - | - |
| 1776997633 | 12.78° C | 36% | 963.7 hPa | - | - | - | - |
| 1776997333 | 12.22° C | 36% | 963.8 hPa | - | - | - | - |
| 1776997033 | 12.22° C | 36% | 963.8 hPa | - | - | - | - |
| 1776996733 | 12.22° C | 36% | 964 hPa | - | - | - | - |
* Rain since midnight (hover to see other rain measurements)
** Current wind speed in m/s (hover to see current wind gust speed)